This is the latest recevied weather packets stored in our database for station/object N8HON. If no packets are shown the sender has not sent any weather packets the latest 10 day(s).
| Time | Temp. | Humidity | Pressure | Rain* | Wind** | Luminosity | Snow |
|---|---|---|---|---|---|---|---|
| 1778247529 | 12.78° C | 49% | 1014.7 hPa | 0 mm | - | 498 W/m² | - |
| 1778247227 | 13.33° C | 51% | 1014.7 hPa | 0 mm | - | 500 W/m² | - |
| 1778246923 | 11.67° C | 53% | 1014.8 hPa | 0 mm | - | 460 W/m² | - |
| 1778246621 | 11.67° C | 52% | 1014.6 hPa | 0 mm | - | 135 W/m² | - |
| 1778246318 | 11.11° C | 55% | 1014.7 hPa | 0 mm | - | 394 W/m² | - |
| 1778246013 | 10° C | 59% | 1014.8 hPa | 0 mm | - | 390 W/m² | - |
| 1778245710 | 8.89° C | 59% | 1014.8 hPa | 0 mm | - | 163 W/m² | - |
| 1778245407 | 8.89° C | 59% | 1014.7 hPa | 0 mm | - | 140 W/m² | - |
| 1778245103 | 8.89° C | 60% | 1014.9 hPa | 0 mm | - | 131 W/m² | - |
| 1778244800 | 8.89° C | 59% | 1014.9 hPa | 0 mm | - | 133 W/m² | - |
| 1778244498 | 8.89° C | 60% | 1014.7 hPa | 0 mm | - | 136 W/m² | - |
| 1778244194 | 8.89° C | 59% | 1014.7 hPa | 0 mm | - | 131 W/m² | - |
| 1778243893 | 8.89° C | 59% | 1014.8 hPa | 0 mm | - | 138 W/m² | - |
| 1778243591 | 8.89° C | 60% | 1014.7 hPa | 0 mm | - | 120 W/m² | - |
| 1778243287 | 8.89° C | 61% | 1014.7 hPa | 0 mm | - | 279 W/m² | - |
| 1778242984 | 8.89° C | 61% | 1014.6 hPa | 0 mm | - | 166 W/m² | - |
| 1778242681 | 8.33° C | 62% | 1014.6 hPa | 0 mm | - | 168 W/m² | - |
| 1778242380 | 7.78° C | 63% | 1014.9 hPa | 0 mm | - | 206 W/m² | - |
| 1778242076 | 6.67° C | 70% | 1014.6 hPa | 0 mm | - | 77 W/m² | - |
| 1778241774 | 6.67° C | 71% | 1015 hPa | 0 mm | - | 89 W/m² | - |
| 1778241472 | 6.67° C | 69% | 1014.7 hPa | 0 mm | - | 99 W/m² | - |
| 1778241169 | 7.22° C | 68% | 1014.9 hPa | 0 mm | - | 56 W/m² | - |
| 1778240865 | 7.22° C | 69% | 1014.8 hPa | 0 mm | - | 110 W/m² | - |
| 1778240562 | 6.67° C | 67% | 1014.6 hPa | 0 mm | - | 75 W/m² | - |
| 1778240258 | 6.67° C | 69% | 1014.6 hPa | 0 mm | - | 57 W/m² | - |
* Rain latest hour (hover to see other rain measurements)
** Current wind speed in m/s (hover to see current wind gust speed)